Regional Weather Roundup
Issued by NWS Sioux Falls, SD

Home | Current Version | Previous Version | Text Only | Print | Product List | Glossary On
Versions: 1 2 3 4 5 6 7 8 9 10 11 12 13 14 15 16 17 18 19 20 21 22 23 24 25 26 27 28 29 30 31 32 33 34 35 36 37 38 39 40 41 42 43 44 45 46 47 48 49 50
000
ASUS43 KFSD 210810
RWRFSD

WEATHER ROUNDUP FOR SE SOUTH DAKOTA/SW MINNESOTA/NW IOWA
NATIONAL WEATHER SERVICE SIOUX FALLS SD
300 AM CDT TUE OCT 21 2014

NOTE: "FAIR" INDICATES FEW OR NO CLOUDS BELOW 12,000 FEET WITH NO
SIGNIFICANT WEATHER AND OR OBSTRUCTIONS TO VISIBILITY.


SDZ038>040-050-052>070-210900-
SOUTHEAST SOUTH DAKOTA

CITY           SKY/WX    TMP DP  RH WIND       PRES   REMARKS
CHAMBERLAIN    CLEAR     47  36  65 SE12      29.98S
HURON          CLEAR     47  36  65 SE8       30.02S
MADISON        FAIR      41  36  81 SE3       30.07R
MITCHELL       CLEAR     45  36  70 SE6       30.04R
SIOUX FALLS    CLEAR     40  35  83 NE5       30.07R
WINNER         FAIR      60  40  47 S20G28    29.94S
YANKTON        CLEAR     43  37  81 E3        30.06S
$$

MNZ071-072-080-081-089-090-097-098-210900-
SOUTHWEST MINNESOTA

CITY           SKY/WX    TMP DP  RH WIND       PRES   REMARKS
FAIRMONT       CLEAR     39  16  38 CALM      30.10S
JACKSON        CLEAR     36  32  87 CALM      30.10R
LUVERNE        CLEAR     37  34  87 CALM      30.09R
MARSHALL       FAIR      37  30  75 SE5       30.08R
MONTEVIDEO     CLEAR     39  36  87 S7        30.11R
PIPESTONE      CLEAR     43  36  75 SE6       30.08R
REDWOOD FALLS  CLEAR     43  37  79 E5        30.10R
TRACY          CLEAR     40  35  82 SE5       30.09S
WINDOM         CLEAR     36  34  93 CALM      30.10R
WORTHINGTON    CLEAR     37  34  87 CALM      30.10R
$$

IAZ001>003-012>014-020>022-031-032-NEZ013-014-SDZ071-210900-
NORTHWEST IOWA

CITY           SKY/WX    TMP DP  RH WIND       PRES   REMARKS
CHEROKEE       CLEAR     37  37 100 NE3       30.09R
DENISON        CLEAR     39  39 100 CALM      30.07R
ESTHERVILLE    CLEAR     35  32  88 NE3       30.10R
LE MARS        CLEAR     36  36 100 CALM      30.09R
ORANGE CITY    CLEAR     48  36  61 E5        30.08R
SHELDON        CLEAR     36  34  93 CALM      30.07S
SIOUX CITY     CLEAR     38  36  92 CALM      30.08R
SPENCER        CLEAR     33  31  92 CALM      30.10R
STORM LAKE     CLEAR     46  43  87 E5        30.09S
$$

ABBREVIATIONS USED IN REMARKS
   TC - TEMPERATURE IN CELSIUS
  WCI - WIND CHILL INDEX
   HX - HEAT INDEX
  VSB - VISIBILITY




USA.gov is the U.S. government's official web portal to all federal, state and local government web resources and services.